User: anonymous   Login
Location: Unspecified
(0.0000°N, 0.0000°E)
Time: 00:11:17
(UTC+00:00)
Language:

STARLINK-32653 - Orbit

View from above orbital plane
View from above orbital plane
View from above satellite
View from above satellite

Ground track
Ground track

The orbit is defined by the following mean orbital elements,

1 62199U          26145.47511674 +.00000000 +00000-0 +72090-3 0 00004
2 62199  43.0009 190.1946 0001599 277.8710  82.1960 15.27598585    02
Epoch (UTC): 25 May 2026 11:24:10
Eccentricity: 0.0001599
inclination: 43.0009°
perigee height: 482 km
apogee height: 484 km
right ascension of ascending node: 190.1946°
argument of perigee: 277.8710°
revolutions per day: 15.27598585
mean anomaly at epoch: 82.1960°

The dashed part of the orbit path shows where the satellite is in the earth's shadow,  

DLR